LAPAN-A3 (41603 NORAD) Tracking and Keplerian Element Data

This shows tracking and keplerian element data for the satellite.

Feedback or suggestion? Click here.




ElementValue
Catalog41603
NameLAPAN-A3
Epoch Orbit11432
Epoch Day196.11636678
Epoch Year2018
RAAN257.1306
Inclination97.4102
Eccentricity0.0014441
Argument of Perigee137.593
Mean Anonmoly252.8451
Mean Motion15.19579975
Decay Rate2.3E-07
L11 41603U 16040E 18196.11636678 .00000023 00000-0 42579-5 0 9995
L22 41603 97.4102 257.1306 0014441 137.5930 252.8451 15.19579975114321

Live tracking and technical data element details for LAPAN-A3 (NORAD 41603). LAPAN-A3 can be tracked NOW for your location showing map with azimuth and elevation plus other details from your city location.

Track the satellite on the map from your city or location and see movement details for azimuth, elevation, latitude, longitude, range, height, and movement on the map or in text.







IsCatalogInMostPopularTable: catalog: 41603, numindb: 74
Update: records affected: 1



GetName: 41603 LAPAN-A3

Hit Count: updated at: Sun, 15 Jul 2018 23:00:08 GMT